Theta_e
316 316 316 314 315 316 317 317 317 317 317 316 317 317 317 318 319 320 323 329 328 333 336 334 336 334 331 332 332 336 337 336 340 339 338 338 334 337 335 334 333 333 334
317 317 316 315 315 316 316 317 317 317 318 318 317 319 318 317 316 316 319 321 319 322 325 325 329 335 335 333 338 339 338 339 339 338 337 338 337 335 335 334 333 333 333
317 317 316 316 315 316 316 315 315 316 316 316 317 319 320 319 319 317 316 318 324 323 318 319 321 323 326 332 334 335 338 339 338 336 333 338 337 336 335 334 333 332 332
317 317 317 316 316 316 317 316 315 316 315 315 316 316 318 317 318 318 318 317 314 322 328 320 321 331 330 331 334 336 336 338 338 336 337 340 337 337 335 334 333 332 329
316 317 317 317 317 317 316 315 314 314 314 314 313 313 313 313 315 315 317 318 316 319 328 329 321 324 329 337 343 341 340 339 337 335 338 339 337 336 334 332 332 331 329
314 313 314 314 314 314 314 314 314 313 313 313 313 313 312 312 312 312 311 316 316 319 323 330 330 331 333 338 342 339 339 338 338 337 338 337 337 336 332 332 332 330 329
311 312 313 313 313 313 313 312 313 312 311 311 310 310 310 308 309 309 315 318 316 314 316 329 328 330 332 337 340 339 338 337 337 337 336 337 336 332 332 332 331 330 328
308 309 311 312 313 313 313 312 312 312 311 310 310 310 309 309 317 318 320 316 316 315 324 326 328 328 333 338 338 338 336 336 336 336 337 336 333 332 331 328 330 330 328
307 307 309 312 313 313 313 313 312 311 310 310 309 308 308 309 316 317 317 316 315 323 326 326 328 328 337 337 335 336 334 335 334 336 336 334 333 332 328 328 329 329 327
306 306 306 308 310 311 312 311 310 310 310 309 309 308 309 310 315 316 316 316 319 325 325 325 326 330 335 335 334 333 331 333 335 333 331 333 333 330 328 328 327 328 327
305 305 306 307 308 308 310 311 311 310 310 309 308 308 310 309 314 320 318 317 319 322 324 324 325 333 335 334 328 326 330 332 332 330 329 329 329 329 328 327 324 325 325
305 305 307 308 308 309 310 311 310 310 309 309 309 310 310 311 311 315 317 317 317 318 322 324 329 334 335 331 327 326 332 332 331 330 329 329 328 328 326 326 326 326 327
304 305 305 307 308 309 310 310 310 310 309 310 311 311 310 311 312 315 316 315 315 316 319 324 330 334 329 327 327 331 331 330 329 329 329 328 327 326 326 327 327 327 327
304 305 306 307 307 309 310 310 310 309 310 311 311 311 311 311 311 314 315 313 313 314 319 325 331 332 328 331 332 332 330 329 328 328 326 326 326 326 326 326 326 327 327
304 306 306 307 307 307 307 308 309 310 310 310 311 311 313 315 312 315 312 314 314 316 322 331 332 331 329 329 332 331 328 328 328 326 325 326 326 325 325 325 325 326 326
304 305 306 307 307 307 308 309 310 310 311 311 312 312 312 313 314 313 313 316 318 321 331 332 331 327 327 331 330 326 326 327 326 326 326 326 326 326 325 325 325 325 324
303 304 305 307 307 307 308 309 309 310 311 312 313 313 314 315 314 314 313 320 324 328 331 330 328 329 330 328 325 325 326 326 326 326 327 327 326 326 326 325 324 323 323
303 304 305 308 308 308 308 309 310 312 312 313 313 313 315 315 313 313 315 323 327 328 331 326 324 330 327 325 325 325 326 325 325 326 326 327 326 325 326 325 323 323 324
304 305 306 306 308 308 309 310 311 311 312 313 313 313 313 313 313 313 319 327 328 328 330 328 329 327 326 325 324 325 325 326 326 325 325 325 324 323 323 323 323 323 323
304 305 306 307 308 311 312 312 313 314 314 314 314 314 313 312 313 318 326 326 327 329 330 330 328 326 325 324 325 325 326 325 325 324 324 323 322 322 323 323 324 323 324
306 306 308 309 309 312 313 314 314 314 315 316 320 323 323 321 323 325 326 328 328 330 329 327 325 324 324 325 325 325 324 324 324 323 322 323 324 324 325 325 324 324 323
314 312 313 314 314 315 317 319 320 320 321 323 324 323 322 325 326 324 324 326 329 328 327 325 325 325 325 324 324 324 324 322 322 322 322 324 324 324 324 324 324 324 323
321 320 320 319 320 320 321 320 321 322 323 324 324 326 325 325 329 329 329 328 327 326 326 325 325 325 325 325 324 323 322 321 322 321 322 321 321 322 323 324 323 322 322
322 322 324 323 324 324 323 323 323 321 320 323 324 324 326 326 328 327 327 326 326 326 326 325 326 326 326 325 323 322 322 321 322 322 322 322 322 323 323 325 324 322 321
324 324 324 324 323 322 321 321 323 322 324 323 324 325 327 327 327 327 326 326 327 327 326 326 326 326 325 324 322 322 322 322 322 322 322 322 324 323 323 323 323 321 318
325 325 325 324 324 324 323 323 325 325 326 327 327 326 326 325 325 326 327 327 326 326 326 326 326 325 323 323 323 324 324 324 323 323 323 322 322 320 319 318 317 316 310
Wind_Speed
19 17 14 12 13 11 10 8 7 7 6 8 11 11 12 14 16 19 22 24 27 30 31 35 41 34 25 30 38 33 31 32 35 37 32 25 22 16 13 10 11 14 17
23 23 20 16 16 17 16 15 16 15 15 15 13 14 15 18 20 19 21 25 27 31 31 35 39 30 27 38 41 35 33 32 31 30 24 22 19 13 12 11 16 17 19
31 29 25 23 23 23 23 20 19 17 14 16 17 18 20 20 22 22 21 25 26 28 31 33 34 31 29 36 37 32 33 32 26 25 22 20 18 15 15 15 18 16 19
38 35 33 31 31 30 27 25 23 21 21 21 21 23 23 25 24 25 28 32 29 28 27 31 32 30 31 32 35 36 34 32 25 23 21 20 19 16 17 16 17 17 17
22 35 34 32 30 30 29 29 27 26 27 29 29 30 31 30 31 30 31 34 32 27 27 26 26 29 31 31 31 32 29 26 24 23 23 23 21 21 19 16 17 17 16
23 23 24 28 28 29 28 26 27 30 31 32 34 35 37 42 43 44 41 37 33 30 31 29 27 28 30 29 27 26 25 24 24 25 24 25 22 20 13 15 17 17 15
25 27 33 34 37 38 36 35 36 35 34 34 35 34 37 39 36 34 30 34 33 32 32 30 30 31 31 29 26 26 25 24 23 20 19 21 17 11 10 15 17 16 15
39 37 36 40 40 40 37 36 34 34 36 36 37 39 41 35 27 26 30 34 32 31 27 30 31 34 31 28 26 26 25 25 22 18 15 13 11 11 13 12 11 12 14
54 49 40 35 34 39 39 37 36 36 37 37 38 41 39 33 26 24 25 29 29 27 24 27 28 30 28 24 22 18 17 23 19 16 15 13 13 13 11 12 15 16 16
49 50 45 49 46 43 44 42 41 41 39 38 41 42 38 35 25 26 25 28 27 25 24 28 27 26 23 18 18 15 18 22 18 14 12 13 14 12 12 11 10 11 17
48 45 43 46 49 54 48 45 41 40 41 44 47 39 37 35 28 23 25 28 28 27 26 28 23 19 20 20 18 16 20 22 16 14 12 12 12 13 12 11 10 8 9
46 42 37 37 45 42 45 44 44 45 43 43 39 36 32 31 32 26 29 31 29 31 29 28 21 19 24 20 17 15 21 19 15 13 13 12 13 13 12 11 10 9 10
44 41 39 44 40 39 40 41 40 39 38 35 36 38 38 35 28 24 28 28 32 34 31 27 22 23 25 20 22 21 21 17 15 14 14 12 11 11 12 11 10 10 9
40 38 35 34 35 38 37 37 37 39 34 34 37 37 33 32 31 27 29 30 32 33 30 24 22 26 23 19 21 21 18 15 14 13 12 13 12 11 11 10 11 11 10
33 34 34 33 34 35 35 36 35 34 34 34 33 31 28 27 30 28 27 26 26 26 25 23 21 25 22 21 25 20 17 17 17 17 16 13 13 12 11 11 10 10 10
34 34 34 32 32 32 30 30 30 30 26 28 29 28 29 27 26 25 24 23 20 23 20 26 27 24 20 28 23 21 18 18 19 18 15 14 13 12 12 11 9 8 6
32 30 29 32 30 28 28 28 29 30 29 27 25 25 23 23 24 22 23 23 20 18 31 31 29 30 31 28 23 21 22 21 18 16 16 16 14 13 12 11 10 8 6
29 30 30 27 28 26 25 25 25 24 24 26 24 25 24 24 24 23 24 19 19 24 39 34 25 27 27 26 24 22 23 21 18 17 17 15 15 11 13 12 9 6 6
31 29 26 24 22 21 22 22 23 22 22 20 19 24 24 25 27 26 21 21 26 40 39 33 29 29 29 25 24 24 22 20 17 17 17 17 14 12 10 12 9 8 7
22 23 23 24 23 19 18 19 18 17 17 18 20 22 27 30 28 25 19 28 35 33 33 31 29 30 28 26 24 23 22 20 19 19 16 14 13 14 12 11 10 9 7
20 20 20 18 20 19 17 17 18 18 17 15 16 17 18 26 27 33 33 28 23 26 26 28 30 29 27 25 23 22 20 19 16 16 14 14 14 11 10 9 8 6 5
12 15 17 19 18 18 19 17 16 15 14 11 9 14 23 29 36 37 30 29 28 26 28 28 28 27 25 23 22 20 18 16 17 16 14 12 12 11 9 9 7 6 4
7 12 13 18 19 20 19 18 17 18 20 17 19 27 20 24 32 29 26 25 26 26 26 26 27 25 21 18 17 18 17 17 16 16 16 14 13 11 9 9 9 9 6
18 10 19 19 22 26 24 24 21 19 19 23 27 27 32 31 29 28 29 28 27 28 25 25 24 23 21 19 19 20 19 17 16 15 13 14 14 11 10 11 12 11 10
21 23 19 23 19 21 21 24 24 21 20 20 28 33 36 33 32 31 30 27 28 28 26 24 23 22 19 18 17 18 17 16 15 15 14 12 12 13 12 12 13 10 7
16 17 18 16 16 22 25 26 31 33 31 33 36 34 32 32 31 30 30 28 29 26 24 24 22 18 17 18 18 17 17 16 17 16 17 16 15 14 12 11 10 10 10
Wind_Direction
230 229 226 237 226 232 232 222 224 239 261 275 277 273 279 282 273 264 265 262 269 266 259 260 275 287 280 278 275 282 288 288 281 283 283 278 286 289 280 280 273 281 278
235 229 226 231 219 223 233 237 242 250 260 265 265 271 288 302 302 286 276 276 273 273 273 278 282 287 272 271 273 279 283 286 279 277 269 269 275 271 281 277 270 276 285
233 236 229 227 225 233 238 242 248 254 256 265 270 272 278 286 298 297 295 294 285 282 277 279 277 287 279 280 279 280 286 288 276 263 266 267 255 263 270 268 265 282 284
235 235 238 237 238 241 243 242 245 252 262 268 271 275 276 280 282 289 296 296 298 285 286 280 278 276 274 274 280 282 283 278 266 259 260 257 257 262 271 258 261 272 281
246 237 246 240 231 229 232 241 248 255 265 269 270 277 274 275 278 281 286 290 294 289 287 286 279 276 274 280 284 280 276 267 257 252 250 249 243 250 267 258 256 268 274
264 259 242 241 241 242 245 250 256 262 264 263 266 271 274 274 278 273 278 279 287 286 281 285 279 273 269 272 281 273 266 260 247 248 251 250 253 258 255 252 256 260 259
263 265 257 251 252 253 257 259 261 262 267 269 274 282 289 289 280 273 263 271 279 285 282 278 280 273 276 280 276 268 256 246 241 249 254 259 261 263 253 257 258 254 259
273 267 265 256 253 252 257 260 260 265 272 277 283 289 293 282 273 260 265 271 276 280 280 270 277 274 284 283 275 262 244 244 241 245 252 258 251 246 249 258 262 255 246
271 270 259 257 257 251 249 250 258 265 272 277 285 290 284 268 261 255 261 267 274 279 271 265 278 275 284 276 265 244 250 247 245 245 249 244 242 243 247 242 242 231 233
263 264 260 253 252 250 250 256 261 265 268 275 280 284 275 263 257 254 255 264 272 278 269 271 272 269 272 248 225 220 243 263 253 240 236 240 243 239 236 237 239 241 242
258 261 256 244 246 248 250 251 253 258 270 275 277 271 268 258 243 242 250 261 269 274 277 277 266 266 242 225 206 205 252 257 231 224 227 230 230 227 222 220 215 198 241
249 248 241 241 242 240 243 245 252 259 264 268 263 260 258 253 244 245 246 257 264 270 274 275 262 247 227 201 201 223 235 226 217 220 223 222 223 219 212 210 218 227 218
242 241 243 239 240 240 241 245 245 249 262 254 251 254 254 250 243 239 244 257 258 265 274 268 252 226 215 206 220 218 218 214 215 213 219 214 202 196 199 198 195 187 184
228 231 232 235 233 234 234 236 246 257 246 245 247 247 255 251 241 234 249 258 258 262 268 258 242 212 209 207 213 208 210 211 207 203 187 175 183 185 180 183 184 184 187
223 221 224 222 229 234 239 243 241 238 242 245 242 240 242 242 232 233 248 262 256 256 256 239 214 188 212 215 209 206 197 191 189 185 177 173 171 169 169 172 177 181 185
215 216 216 224 226 230 231 231 232 238 241 244 246 244 241 243 234 241 253 255 243 247 227 207 182 186 206 214 196 189 189 188 182 180 179 175 169 172 168 167 168 174 181
206 208 212 212 221 225 218 226 229 231 236 233 235 233 231 235 233 240 254 246 235 232 205 190 189 196 198 195 190 187 180 173 175 177 171 170 176 176 174 168 168 174 189
197 207 206 203 213 217 225 222 222 225 228 234 229 223 224 226 227 240 247 243 219 211 198 186 201 196 191 186 181 178 174 173 175 173 172 180 180 184 187 184 190 190 205
189 198 202 202 208 212 216 218 224 229 232 231 231 229 228 232 237 245 239 219 202 194 196 204 192 189 184 178 175 172 174 176 168 165 171 177 184 186 189 190 191 188 205
192 202 203 202 204 207 208 210 210 213 220 227 235 238 231 231 226 225 202 191 189 189 187 182 183 178 175 171 167 168 171 169 167 169 172 175 178 180 176 174 180 190 210
184 191 194 198 203 197 194 204 206 211 218 228 236 237 212 205 193 166 170 169 189 187 174 179 172 169 166 166 168 169 171 168 169 170 179 171 174 169 163 174 175 183 189
169 182 189 190 194 198 192 187 195 196 206 203 193 160 152 159 160 159 164 178 179 174 173 171 166 163 163 165 167 167 169 167 166 173 177 168 167 168 166 162 155 144 140
178 163 162 158 170 179 183 187 189 192 172 158 142 155 163 164 166 167 165 164 164 164 164 164 159 158 157 158 164 163 158 167 169 175 175 174 175 176 165 151 151 141 141
124 133 132 124 155 162 163 164 165 168 161 164 158 161 168 168 156 155 155 157 162 162 159 161 163 162 163 163 163 166 167 171 171 165 169 171 172 180 173 171 159 160 161
124 132 130 138 136 146 143 141 140 140 149 149 170 168 153 152 153 155 159 160 162 164 162 164 166 164 167 166 167 167 168 171 173 171 170 170 168 160 159 158 160 155 147
118 127 134 134 136 138 142 143 143 149 151 144 138 146 151 155 155 159 160 163 160 160 161 162 160 162 159 158 160 163 160 158 153 153 157 159 155 152 153 156 160 162 149